Hourly Data Report for October 18, 2016

All times are specified in Local Standard Time (LST). Add 1 hour to adjust for Daylight Saving Time where and when it is observed.

POND INLET A
NUNAVUT

72°41'22.000" N
77°58'08.000" W
61.60 m
2403206
71095
YIO

Related Data

No related data is available for this station

Download Data

Hourly Data (October 2016)
Hourly Data Report for October 18, 2016
Temp Definition
°C
Dew Point Temp Definition
°C
Rel Hum Definition
%
Wind Dir Definition
10's deg

Wind Spd Definition
km/h
Visibility Definition
km
Stn Press Definition
kPa
Hmdx Definition


Wind Chill Definition


Weather Definition


TIME
00:00 Legend Double Dagger -10.4 -11.6 91 24 11 6.4 100.80   -16 Snow
01:00 Legend Double Dagger -10.0 -10.9 93 25 13 4.0 100.83   -16 Snow
02:00 Legend Double Dagger -9.1 -10.5 90 24 43 3.2 100.81   -20 Snow
03:00 Legend Double Dagger -9.3 -10.5 91 25 34 8.1 100.83   -19 Snow
04:00 Legend Double Dagger -9.2 -10.6 90 24 41 4.8 100.86   -20 Snow
05:00 Legend Double Dagger -9.2 -10.1 93 26 37 2.4 100.87   -19 Snow
06:00 Legend Double Dagger -9.0 -11.3 84 25 32 16.1 100.91   -18 LegendNANA
07:00 Legend Double Dagger -9.0 -11.2 84 26 24 16.1 100.93   -17 Snow
08:00 Legend Double Dagger -8.9 -10.4 89 24 34 16.1 100.93   -19 LegendNANA
09:00 Legend Double Dagger -8.9 -10.4 89 24 35 16.1 100.95   -19 LegendNANA
10:00 Legend Double Dagger -8.6 -11.3 81 24 41 16.1 100.96   -19 LegendNANA
11:00 Legend Double Dagger -8.6 -11.4 80 24 41 14.5 100.98   -19 LegendNANA
12:00 Legend Double Dagger -9.0 -11.3 84 24 41 9.7 101.00   -20 Snow
13:00 Legend Double Dagger -8.8 -11.5 81 25 32 16.1 101.03   -18 LegendNANA
14:00 Legend Double Dagger -9.3 -12.7 77 27 26 16.1 101.06   -18 LegendNANA
15:00 Legend Double Dagger -9.8 -12.6 80 25 22 16.1 101.09   -18 LegendNANA
16:00 Legend Double Dagger -9.8 -12.5 81 25 22 16.1 101.13   -18 LegendNANA
17:00 Legend Double Dagger -10.1 -13.1 79 25 18 16.1 101.15   -18 LegendNANA
18:00 Legend Double Dagger -10.4 -12.6 84 26 13 16.1 101.15   -17 Snow
19:00 Legend Double Dagger -10.5 -13.7 78 25 21 16.1 101.17   -19 LegendNANA
20:00 Legend Double Dagger -11.3 -13.6 83 24 13 16.1 101.20   -18 LegendNANA
21:00 Legend Double Dagger -12.9 -15.1 84 17 17 16.1 101.19   -21 Snow
22:00 Legend Double Dagger -14.3 -16.8 82 20 17 16.1 101.19   -23 LegendNANA
23:00 Legend Double Dagger -12.3 -14.3 85 18 13 16.1 101.20   -19 LegendNANA

Notes on Data Quality.

Legend

  • E = Estimated
  • M = Missing
  • NA = Not Available
  • ‡ = Partner data that is not subject to review by the National Climate Archives
Date modified: